Location: Newark
(50.4348°N, 30.5552°E)
Time: 05:01:32
(UTC+00:00)

Altair - Pass Details

Date: 23 January 2020
Orbit: 1502 x 1682 km, 47.2° (Epoch: 18 February)

Event Time Altitude Azimuth Distance (km) Brightness Sun altitude
Rises 06:38:33 0° 214° (SW) 4,877 10.2 6.1°
Reaches altitude 10° 06:41:55 10° 208° (SSW) 3,909 9.9 6.5°
Maximum altitude 06:51:00 40° 143° (SE) 2,305 9.6 7.5°
Drops below altitude 10° 07:00:08 10° 79° (E) 3,942 10.2 8.6°
Sets 07:03:31 0° 72° (ENE) 4,923 10.5 8.9°
